Weather History for Warrensburg, MO

Change the Weather History Date:

Wednesday, February 27, 2013

  Actual Average (KSZL) Record (KSZL)
Temperature  
Mean Temperature 31 °F -  
Max Temperature 32 °F 43 °F 68 °F (2006)
Min Temperature 30 °F 27 °F 14 °F (2002)
Degree Days  
Heating Degree Days 34    
Moisture  
Dew Point 27 °F    
Average Humidity 84    
Maximum Humidity 93    
Minimum Humidity 75    
Precipitation  
Precipitation 0.00 in - - ()
Sea Level Pressure  
Sea Level Pressure 29.91 in    
Wind  
Wind Speed 10 mph (West)    
Max Wind Speed 16 mph    
Max Gust Speed 23 mph    
Visibility 6 miles    
Events Snow    
Averages and records for this station are not official NWS values.
T = Trace of Precipitation, MM = Missing Value Source: NWS Daily Summary

Daily Weather History Graph

Daily Weather History Graph

Search for Another Location

Airport:

Trip Planner

Search our weather history database for the weather conditions in past years. The results will help you decide how hot, cold, wet, or windy it might be!

Date:

Astronomy

Feb. 27, 2013 Rise Set
Actual Time 6:50 AM CST 6:06 PM CST
Civil Twilight 6:23 AM CST 6:33 PM CST
Nautical Twilight 5:52 AM CST 7:03 PM CST
Astronomical Twilight 5:21 AM CST 7:34 PM CST
Moon 8:26 PM CST (2/27) 7:27 AM CST (2/27)
Length of Visible Light 12h 09m
Length of Day
11h 16m
Waning Gibbous, 96% of the Moon is Illuminated
Feb 27
Waning Gibbous
Mar 4
Last Quarter
Mar 11
New
Mar 19
First Quarter
Mar 27
Full

Hourly Weather History & Observations

Time (CST) Temp. Windchill Dew Point Humidity Pressure Visibility Wind Dir Wind Speed Gust Speed Precip Events Conditions
12:15 AM 32.0 °F 23.6 °F 30.2 °F 93% 29.82 in 7.0 mi WNW 10.4 mph - N/A   Overcast
12:35 AM 32.0 °F 23.0 °F 30.2 °F 93% 29.82 in 7.0 mi WNW 11.5 mph - N/A   Overcast
12:55 AM 32.0 °F 23.6 °F 28.4 °F 87% 29.82 in 7.0 mi WNW 10.4 mph - N/A   Overcast
1:15 AM 32.0 °F 23.0 °F 28.4 °F 87% 29.82 in 7.0 mi WNW 11.5 mph - N/A   Overcast
1:35 AM 32.0 °F 23.0 °F 28.4 °F 87% 29.82 in 7.0 mi WNW 11.5 mph - N/A   Overcast
1:55 AM 32.0 °F 23.6 °F 28.4 °F 87% 29.82 in 5.0 mi WNW 10.4 mph - N/A   Overcast
2:15 AM 32.0 °F 23.6 °F 28.4 °F 87% 29.82 in 4.0 mi WNW 10.4 mph - N/A Snow Light Snow
2:35 AM 32.0 °F 24.8 °F 28.4 °F 87% 29.81 in 3.0 mi WNW 8.1 mph - N/A Snow Light Snow
2:55 AM 32.0 °F 24.2 °F 28.4 °F 87% 29.81 in 3.0 mi WNW 9.2 mph - N/A Snow Light Snow
3:15 AM 30.2 °F 21.3 °F 28.4 °F 93% 29.81 in 3.0 mi WNW 10.4 mph - N/A Snow Light Snow
3:35 AM 30.2 °F 21.9 °F 28.4 °F 93% 29.81 in 4.0 mi West 9.2 mph - N/A Snow Light Snow
4:35 AM 30.2 °F 22.6 °F 28.4 °F 93% 29.83 in 2.5 mi West 8.1 mph - N/A Snow Light Snow
4:55 AM 30.2 °F 23.4 °F 28.4 °F 93% 29.83 in 2.5 mi West 6.9 mph - N/A Snow Light Snow
5:35 AM 30.2 °F 22.6 °F 28.4 °F 93% 29.85 in 2.5 mi West 8.1 mph - N/A Snow Light Snow
5:55 AM 30.2 °F 21.3 °F 28.4 °F 93% 29.85 in 2.5 mi West 10.4 mph - N/A Snow Light Snow
6:35 AM 30.2 °F 21.3 °F 28.4 °F 93% 29.86 in 2.5 mi West 10.4 mph - N/A Snow Light Snow
6:55 AM 30.2 °F 22.6 °F 28.4 °F 93% 29.86 in 1.8 mi West 8.1 mph - N/A Snow Light Snow
7:15 AM 30.2 °F 21.9 °F 28.4 °F 93% 29.85 in 1.8 mi West 9.2 mph - N/A Snow Light Snow
7:35 AM 30.2 °F 20.8 °F 28.4 °F 93% 29.86 in 2.0 mi West 11.5 mph - N/A Snow Light Snow
7:55 AM 32.0 °F 22.5 °F 28.4 °F 87% 29.87 in 2.5 mi West 12.7 mph 17.3 mph N/A Snow Light Snow
8:15 AM 32.0 °F 21.6 °F 28.4 °F 87% 29.88 in 3.0 mi West 15.0 mph - N/A Snow Light Snow
8:35 AM 30.2 °F 20.2 °F 28.4 °F 93% 29.88 in 2.5 mi West 12.7 mph 20.7 mph N/A Snow Light Snow
8:55 AM 30.2 °F 20.2 °F 28.4 °F 93% 29.88 in 3.0 mi West 12.7 mph - N/A Snow Light Snow
9:15 AM 32.0 °F 22.1 °F 26.6 °F 80% 29.89 in 4.0 mi West 13.8 mph 18.4 mph N/A   Haze
9:55 AM 32.0 °F 22.5 °F 26.6 °F 80% 29.89 in 4.0 mi West 12.7 mph 20.7 mph N/A   Haze
10:15 AM 32.0 °F 21.6 °F 26.6 °F 80% 29.90 in 3.0 mi West 15.0 mph - N/A Snow Light Snow
10:35 AM 32.0 °F 22.5 °F 28.4 °F 87% 29.90 in 3.0 mi West 12.7 mph 17.3 mph N/A Snow Light Snow
10:55 AM 32.0 °F 23.6 °F 28.4 °F 87% 29.91 in 2.5 mi West 10.4 mph - N/A Snow Light Snow
11:15 AM 32.0 °F 23.6 °F 28.4 °F 87% 29.91 in 2.5 mi West 10.4 mph 17.3 mph N/A Snow Light Snow
11:35 AM 32.0 °F 23.0 °F 28.4 °F 87% 29.91 in 3.0 mi West 11.5 mph - N/A Snow Light Snow
11:55 AM 32.0 °F 23.6 °F 28.4 °F 87% 29.92 in 5.0 mi West 10.4 mph - N/A Snow Light Snow
12:15 PM 32.0 °F 22.5 °F 28.4 °F 87% 29.91 in 5.0 mi West 12.7 mph 17.3 mph N/A Snow Light Snow
12:35 PM 32.0 °F 22.5 °F 26.6 °F 80% 29.91 in 7.0 mi West 12.7 mph - N/A Snow Light Snow
12:55 PM 32.0 °F 22.1 °F 26.6 °F 80% 29.91 in 7.0 mi West 13.8 mph 18.4 mph N/A   Overcast
1:35 PM 32.0 °F 22.1 °F 26.6 °F 80% 29.91 in 5.0 mi West 13.8 mph 19.6 mph N/A   Haze
1:55 PM 32.0 °F 22.5 °F 28.4 °F 87% 29.92 in 4.0 mi West 12.7 mph - N/A   Haze
2:35 PM 32.0 °F 21.2 °F 26.6 °F 80% 29.93 in 4.0 mi WNW 16.1 mph 23.0 mph N/A Snow Light Snow
3:15 PM 32.0 °F 22.5 °F 26.6 °F 80% 29.94 in 7.0 mi WNW 12.7 mph 19.6 mph N/A   Overcast
3:35 PM 32.0 °F 23.6 °F 28.4 °F 87% 29.95 in 5.0 mi West 10.4 mph - N/A   Haze
3:55 PM 32.0 °F 22.1 °F 26.6 °F 80% 29.95 in 10.0 mi WNW 13.8 mph 18.4 mph N/A   Overcast
4:35 PM 32.0 °F 23.6 °F 26.6 °F 80% 29.96 in 10.0 mi West 10.4 mph - N/A   Overcast
4:55 PM 32.0 °F 24.2 °F 26.6 °F 80% 29.97 in 10.0 mi West 9.2 mph 16.1 mph N/A   Overcast
5:15 PM 32.0 °F 22.5 °F 26.6 °F 80% 29.97 in 10.0 mi West 12.7 mph - N/A   Overcast
5:35 PM 32.0 °F 24.2 °F 26.6 °F 80% 29.97 in 10.0 mi WNW 9.2 mph - N/A   Overcast
5:55 PM 32.0 °F 25.6 °F 26.6 °F 80% 29.98 in 10.0 mi West 6.9 mph - N/A   Overcast
6:15 PM 32.0 °F 24.8 °F 26.6 °F 80% 29.98 in 10.0 mi West 8.1 mph - N/A   Mostly Cloudy
6:35 PM 32.0 °F 25.6 °F 26.6 °F 80% 29.98 in 10.0 mi West 6.9 mph - N/A   Overcast
6:55 PM 32.0 °F 26.4 °F 24.8 °F 75% 29.98 in 10.0 mi West 5.8 mph - N/A   Overcast
7:15 PM 32.0 °F 27.5 °F 24.8 °F 75% 29.98 in 10.0 mi West 4.6 mph - N/A   Scattered Clouds
7:35 PM 30.2 °F 25.4 °F 24.8 °F 80% 29.98 in 10.0 mi West 4.6 mph - N/A   Mostly Cloudy
8:15 PM 30.2 °F 22.6 °F 24.8 °F 80% 29.99 in 10.0 mi WSW 8.1 mph - N/A   Scattered Clouds
8:35 PM 32.0 °F 24.2 °F 24.8 °F 75% 29.99 in 10.0 mi West 9.2 mph - N/A   Mostly Cloudy
8:55 PM 32.0 °F 23.6 °F 24.8 °F 75% 29.99 in 10.0 mi West 10.4 mph - N/A   Overcast
9:15 PM 32.0 °F 25.6 °F 24.8 °F 75% 29.99 in 10.0 mi West 6.9 mph - N/A   Overcast
9:35 PM 32.0 °F 26.4 °F 24.8 °F 75% 30.00 in 10.0 mi West 5.8 mph - N/A   Overcast
10:15 PM 32.0 °F 26.4 °F 24.8 °F 75% 30.00 in 10.0 mi West 5.8 mph - N/A   Mostly Cloudy
10:35 PM 32.0 °F 24.2 °F 24.8 °F 75% 30.00 in 10.0 mi WNW 9.2 mph - N/A   Mostly Cloudy
10:55 PM 32.0 °F 24.2 °F 24.8 °F 75% 30.00 in 10.0 mi WNW 9.2 mph - N/A   Overcast
11:15 PM 32.0 °F 23.6 °F 24.8 °F 75% 30.01 in 10.0 mi WNW 10.4 mph - N/A   Overcast